EHI
4 4 4 3 2 1 1 0 0 0 0 0 0 0 0 0 0 0 0 0 0 0 0 0 0 0 0 0 0 0 0 0 0 0 0 0 0 0 0 0 0 0 0
4 4 3 3 3 2 2 1 0 0 0 0 0 0 0 0 0 0 0 0 0 0 0 0 0 0 0 0 0 0 0 0 0 0 0 0 0 0 0 0 0 0 0
3 3 3 3 3 3 3 2 0 0 0 0 0 0 0 0 0 0 0 0 0 0 0 0 0 0 0 0 0 0 0 0 0 0 0 0 0 0 0 0 0 0 0
3 3 3 3 3 3 3 1 0 0 0 0 0 0 0 0 0 0 0 0 0 0 0 0 0 0 0 0 0 0 0 0 0 0 0 0 0 0 0 0 0 0 0
3 3 3 3 3 3 2 1 0 0 0 0 0 0 0 0 0 0 0 0 0 0 0 0 0 0 0 0 0 0 0 0 0 0 0 0 0 0 0 0 0 0 0
3 3 3 3 3 2 1 0 0 0 0 0 0 0 0 0 0 0 0 0 0 0 0 0 0 0 0 0 0 0 0 0 0 0 0 0 0 0 0 0 0 0 0
5 5 3 2 2 1 0 0 0 0 0 0 0 0 0 0 0 0 0 0 0 0 0 0 0 0 0 0 0 0 0 0 0 0 0 0 0 0 0 0 0 0 0
7 6 3 1 0 0 0 0 0 0 0 0 0 0 0 0 0 0 0 0 0 0 0 0 0 0 0 0 0 0 0 0 0 0 0 0 0 0 0 0 0 0 0
8 5 2 0 0 0 0 0 0 0 0 0 0 0 0 0 0 0 0 0 0 0 0 0 0 0 0 0 0 0 0 0 0 0 0 0 0 0 0 0 0 0 0
6 4 1 0 0 0 0 0 0 0 0 0 0 0 0 0 0 0 0 0 0 0 0 0 0 0 0 0 0 0 0 0 0 0 0 0 0 0 0 0 0 0 0
3 1 0 0 0 0 0 0 0 0 0 0 0 0 0 0 0 0 0 0 0 0 0 0 0 0 0 0 0 0 0 0 0 0 0 0 0 0 0 0 0 0 0
1 0 0 0 0 0 0 0 0 0 0 0 0 0 0 0 0 0 0 0 0 0 0 0 0 0 0 0 0 0 0 0 0 0 0 0 0 0 0 0 0 0 0
0 0 0 0 0 0 0 0 0 0 0 0 0 0 0 0 0 0 0 0 0 0 0 0 0 0 0 0 0 0 0 0 0 0 0 0 0 0 0 0 0 0 0
0 0 0 0 0 0 0 0 0 0 0 0 0 0 0 0 0 0 0 0 0 0 0 0 0 0 0 0 0 0 0 0 0 0 0 0 0 0 0 0 0 0 0
0 0 0 0 0 0 0 0 0 0 0 0 0 0 0 0 0 0 0 0 0 0 0 0 0 0 0 0 0 0 0 0 0 0 0 0 0 0 0 0 0 0 0
0 0 0 0 0 0 0 0 0 0 0 0 0 0 0 0 0 0 0 0 0 0 0 0 0 0 0 0 0 0 0 0 0 0 0 0 0 0 0 0 0 0 0
0 0 0 0 0 0 0 0 0 0 0 0 0 0 0 0 0 0 0 0 0 0 0 0 0 0 0 0 0 0 0 0 0 0 0 0 0 0 0 0 0 0 0
0 0 0 0 0 0 0 0 0 0 0 0 0 0 0 0 0 0 0 0 0 0 0 0 0 0 0 0 0 0 0 0 0 0 0 0 0 0 0 0 0 0 0
0 0 0 0 0 0 0 0 0 0 0 0 0 0 0 0 0 0 0 0 0 0 0 0 0 0 0 0 0 0 0 0 0 0 0 0 0 0 0 0 0 0 0
0 0 0 0 0 0 0 0 0 0 0 0 0 0 0 0 0 0 0 0 0 0 0 0 0 0 0 0 0 0 0 0 0 0 0 0 0 0 0 0 0 0 0
0 0 0 0 0 0 0 0 0 0 0 0 0 0 0 0 0 0 0 0 0 0 0 0 0 0 0 0 0 0 0 0 0 0 0 0 0 0 0 0 0 0 0
0 0 0 0 0 0 0 0 0 0 0 0 0 0 0 0 0 0 0 0 0 0 0 0 0 0 0 0 0 0 0 0 0 0 0 0 0 0 0 0 0 0 0
0 0 0 0 0 0 0 0 0 0 0 0 0 0 0 0 0 0 0 0 0 0 0 0 0 0 0 0 0 0 0 0 0 0 0 0 0 0 0 0 0 0 0
0 0 0 0 0 0 0 0 0 0 0 0 0 0 0 0 0 0 0 0 0 0 0 0 0 0 0 0 0 0 0 0 0 0 0 0 0 0 0 0 0 0 0
0 0 0 0 0 0 0 0 0 0 0 0 0 0 0 0 0 0 0 0 0 0 0 0 0 0 0 0 0 0 0 0 0 0 0 0 0 0 0 0 0 0 0
0 0 0 0 0 0 0 0 0 0 0 0 0 0 0 0 0 0 0 0 0 0 0 0 0 0 0 0 0 0 0 0 0 0 0 0 0 0 0 0 0 0 0
Wind_Speed
9 8 9 8 7 8 7 8 7 6 7 7 7 6 6 5 5 4 4 4 4 3 3 3 3 2 2 2 2 2 1 2 2 2 2 2 3 3 4 4 3 3 3
9 8 9 8 8 8 8 7 7 7 7 7 7 7 6 6 6 6 5 5 5 5 4 3 3 2 2 2 2 2 2 2 2 2 2 2 3 3 4 4 4 3 4
9 9 9 8 9 9 8 7 7 7 7 7 7 7 7 6 6 6 5 5 5 5 5 5 4 4 3 2 2 2 2 2 2 2 2 2 2 2 3 3 4 3 4
10 10 10 9 9 9 8 8 8 8 8 7 7 7 7 7 6 6 6 5 5 4 4 5 5 5 5 4 3 3 3 2 2 2 2 2 3 3 2 3 4 3 4
11 11 10 9 8 8 8 8 7 8 8 8 7 6 6 6 6 7 6 6 5 5 4 5 5 7 7 6 4 4 4 3 2 2 3 2 3 3 3 2 4 5 5
11 11 9 9 9 9 9 8 8 8 7 7 8 8 7 6 9 11 8 6 6 6 5 5 5 6 8 8 8 8 7 5 5 4 3 4 6 5 4 3 3 4 5
11 10 10 10 10 10 10 9 9 8 7 7 8 8 8 8 10 11 11 6 6 6 6 5 4 4 5 5 6 6 8 10 10 6 6 7 6 5 4 5 5 5 7
11 11 11 11 11 10 9 10 9 7 7 7 8 8 7 8 11 11 11 7 6 6 6 6 6 5 5 5 4 5 6 7 8 8 8 9 8 7 6 6 6 6 7
12 12 12 12 11 11 11 10 8 7 7 7 6 8 8 8 11 12 10 5 5 7 7 7 7 7 7 7 5 6 7 7 7 10 11 11 12 12 8 5 5 5 7
14 13 12 12 12 12 12 10 7 7 8 8 7 8 9 8 10 12 12 6 6 6 5 6 9 10 9 8 6 6 8 8 6 5 6 8 8 9 9 8 7 7 7
11 10 10 11 11 11 9 8 7 7 7 7 8 7 8 9 9 12 13 7 7 6 6 6 6 9 11 10 8 7 9 8 5 6 6 6 6 5 6 6 7 7 8
9 10 10 10 10 9 8 8 8 8 8 7 7 6 6 7 8 10 14 13 10 7 7 5 5 7 9 9 7 8 10 7 5 5 5 6 6 6 6 6 7 8 9
8 9 9 9 8 7 9 9 7 7 7 7 6 7 6 5 6 10 11 13 13 8 5 6 5 6 6 6 8 8 6 5 4 5 6 7 6 6 6 6 6 7 9
9 8 7 8 7 6 6 7 7 7 7 7 7 7 5 4 4 4 5 6 8 7 5 4 5 5 5 5 5 4 4 4 5 6 6 6 5 5 6 5 6 6 6
7 6 6 6 7 6 6 6 7 7 8 8 7 6 6 6 7 8 6 5 5 5 4 2 2 2 3 3 3 4 4 3 4 5 6 6 6 6 6 5 5 5 6
6 5 5 4 5 5 5 3 3 4 6 7 6 6 5 6 5 7 8 7 6 6 4 2 3 3 3 4 4 4 4 4 4 5 5 6 6 6 7 6 5 6 7
5 4 4 4 4 4 4 5 4 2 3 4 5 6 6 5 5 6 6 5 5 6 3 3 4 4 4 4 5 4 5 5 4 5 6 6 6 6 6 7 6 7 8
4 5 4 3 3 3 3 4 4 4 3 2 2 4 5 5 5 5 6 5 3 3 3 4 4 4 4 5 5 5 5 5 4 5 6 6 6 6 6 7 7 8 8
5 4 3 3 3 3 3 3 3 3 3 2 2 2 3 4 4 4 6 3 3 3 3 3 4 4 4 5 5 5 5 5 5 5 5 6 5 6 6 7 7 9 9
4 6 6 4 3 3 3 3 2 3 2 2 2 2 2 3 2 2 2 2 2 3 3 3 4 4 5 5 4 4 4 5 5 5 6 6 5 5 7 8 8 8 8
4 5 6 5 3 3 3 3 3 3 2 2 1 1 3 2 2 2 2 2 3 3 3 3 4 4 4 4 4 4 6 5 5 5 5 6 6 6 6 7 7 8 8
4 4 4 4 4 3 4 3 3 3 2 2 1 2 2 1 0 0 1 1 2 2 2 3 3 3 3 4 4 5 5 6 6 6 6 6 6 6 7 7 7 8 8
5 5 4 4 4 4 4 4 3 3 2 2 2 2 2 1 1 0 1 1 2 2 2 2 3 3 3 3 4 5 6 6 6 6 6 6 6 6 6 8 10 10 10
5 5 5 4 4 4 4 3 3 3 3 3 2 2 2 1 1 1 2 2 2 2 2 2 3 5 6 5 4 5 5 6 6 5 7 7 7 7 7 8 9 10 10
6 5 5 4 4 4 3 3 3 3 3 2 2 2 2 1 1 2 2 2 3 3 4 4 3 4 6 8 7 6 6 7 6 5 5 6 8 8 8 9 9 10 10
6 5 5 4 4 4 3 3 3 3 2 2 1 1 1 1 2 2 3 3 3 4 4 4 5 7 8 7 8 8 6 6 6 5 5 6 7 8 8 8 10 10 11
Wind_Direction
169 168 165 168 165 161 165 169 167 163 160 163 163 160 160 160 158 153 155 154 148 147 146 145 145 139 129 131 127 126 133 147 190 267 270 290 300 319 331 331 321 313 309
167 163 164 162 161 164 169 170 166 166 168 167 164 164 170 170 169 170 173 172 170 172 174 167 175 165 158 158 156 163 173 182 192 245 283 293 290 302 309 314 320 318 307
162 163 162 164 168 172 173 168 166 167 166 166 166 173 178 178 180 186 183 182 185 187 186 187 192 180 193 194 190 191 194 191 195 222 269 280 285 298 308 304 306 304 304
164 167 171 175 176 175 171 169 171 170 170 174 177 182 183 183 186 187 186 187 191 198 201 203 202 200 208 205 207 210 202 197 200 226 261 275 276 284 282 292 304 300 300
169 176 181 177 172 168 170 174 173 175 181 179 178 184 186 187 193 189 189 192 196 206 215 218 220 221 220 212 212 210 200 206 215 231 254 266 272 275 275 273 287 299 290
178 184 178 172 174 178 179 177 177 181 180 177 185 189 193 202 201 196 190 193 199 206 219 228 236 236 236 231 228 220 203 206 219 226 244 255 267 264 264 264 276 297 296
184 183 178 178 183 185 183 179 184 186 182 186 193 194 201 211 206 203 200 193 203 210 216 224 236 236 229 232 240 241 231 228 220 219 241 251 258 254 256 270 262 260 267
185 185 182 183 186 183 181 187 190 185 187 193 198 200 205 218 213 210 206 201 210 218 220 221 228 242 239 229 240 253 255 248 235 229 237 249 252 254 243 254 268 272 270
190 191 188 187 186 184 190 194 191 185 193 197 197 200 207 221 215 211 198 197 216 227 227 224 225 237 243 231 232 252 267 269 253 237 238 249 257 258 251 251 254 259 277
196 196 190 186 187 191 196 194 187 188 198 198 206 207 210 219 216 209 197 200 218 231 236 234 230 232 241 231 224 237 258 269 275 277 265 266 266 266 250 234 242 253 266
192 187 185 188 192 194 191 187 182 188 192 199 209 213 213 219 219 211 201 203 215 226 235 239 235 229 236 237 228 229 243 257 273 275 280 281 279 272 263 245 232 234 248
177 180 185 187 191 192 186 187 184 185 192 202 210 221 222 221 219 216 209 211 212 219 234 239 237 232 237 242 239 240 248 254 258 265 271 275 277 277 274 267 251 242 242
173 184 187 185 187 184 185 188 184 188 197 205 208 221 227 221 221 221 216 216 216 219 238 241 243 242 244 248 247 250 250 242 243 253 261 266 265 269 277 279 273 261 257
175 180 175 174 177 177 182 187 190 193 198 202 207 216 219 213 217 213 209 211 213 219 235 241 240 240 240 248 258 255 242 236 236 250 262 268 273 273 274 275 280 285 282
168 168 165 167 172 177 184 189 193 201 198 197 205 203 202 215 220 202 190 196 198 202 184 203 225 225 238 252 261 263 256 245 242 249 257 267 272 273 275 276 270 273 270
153 155 158 160 163 171 176 175 179 180 183 191 194 187 199 205 195 183 189 195 189 167 159 203 229 238 248 258 264 268 260 254 254 257 260 263 268 274 279 278 268 269 273
141 142 145 153 159 169 171 174 173 161 149 176 192 194 198 197 196 186 181 175 167 156 181 221 234 244 254 259 259 259 263 267 261 258 260 263 266 272 275 278 278 275 275
114 117 126 141 147 150 162 171 167 166 168 172 189 190 192 195 190 178 160 141 148 174 215 232 243 250 255 259 259 260 265 269 266 266 267 267 268 270 274 276 277 276 278
96 99 108 108 113 119 125 136 146 162 163 148 125 119 144 142 135 146 148 165 196 210 224 238 247 254 258 259 260 260 260 265 268 269 270 272 273 271 272 276 280 279 278
83 91 99 101 101 104 108 115 125 134 136 135 143 146 136 133 140 149 164 184 214 232 237 244 253 255 258 261 263 264 268 269 270 268 272 274 274 271 274 279 282 284 282
72 79 83 87 86 92 96 96 100 105 108 113 119 124 152 158 168 171 174 195 223 239 248 255 259 262 263 262 265 267 266 268 269 272 275 275 275 274 274 275 279 280 283
76 78 81 86 85 83 87 90 93 95 98 97 70 64 106 113 128 168 206 229 241 250 255 258 264 269 272 272 270 269 271 274 276 276 276 275 274 275 278 279 281 282 281
74 75 75 75 80 85 84 80 83 86 81 73 66 65 75 67 29 341 296 292 290 281 277 274 278 284 282 276 273 270 270 273 276 277 275 275 275 275 276 279 282 284 283
70 72 75 74 72 73 76 77 77 80 80 75 69 65 56 44 25 359 334 323 316 312 310 298 285 285 291 293 285 275 271 276 281 276 272 272 275 276 276 276 279 282 285
67 69 69 70 72 73 73 72 70 67 65 64 61 56 48 38 9 341 328 324 321 315 313 308 300 297 298 297 295 292 288 280 275 278 276 271 273 275 276 277 280 285 285
65 69 69 69 69 69 69 70 69 69 62 53 48 44 25 360 338 327 326 325 321 316 314 312 313 315 311 305 303 303 297 289 283 277 273 270 270 272 277 278 282 283 285